Location: Betra
(48.4113°N, 8.6634°E)
Time: 13:44:13
(UTC+00:00)

Cosmos 968 Rocket - Visible Passes

Search period start: 16 June 2025 00:00
Search period end: 26 June 2025 00:00
Orbit: 736 x 766 km, 74.0° (Epoch: 15 June)

Date Brightness Start Highest point End Pass type
(mag) Time Alt. Az. Time Alt. Az. Time Alt. Az.
16 Jun 4.3 00:56:30 18° WSW 01:00:01 42° WNW 01:05:00 10° NNE visible
16 Jun 5.2 22:35:07 16° ESE 22:36:42 18° E 22:40:06 10° NE visible
17 Jun 3.6 00:15:01 28° SW 00:17:47 72° WNW 00:23:03 10° NNE visible
17 Jun 5.8 01:57:37 10° WNW 02:00:30 15° NW 02:03:26 10° N visible
17 Jun 3.5 23:33:29 34° S 23:35:42 66° ESE 23:40:55 10° NNE visible
18 Jun 5.3 01:13:50 10° WSW 01:17:55 23° NW 01:22:02 10° N visible
18 Jun 4.3 22:51:55 28° SE 22:53:46 37° ESE 22:58:34 10° NE visible
19 Jun 4.6 00:31:49 16° WSW 00:35:29 36° WNW 00:40:20 10° N visible
19 Jun 5.0 22:10:20 18° ESE 22:11:58 21° E 22:15:50 10° NE visible
19 Jun 3.8 23:50:13 25° SW 23:53:12 61° WNW 23:58:25 10° NNE visible
20 Jun 5.9 01:33:42 10° WNW 01:36:05 13° NW 01:38:29 10° NNW visible
20 Jun 5.5 21:28:43 10° ESE 21:30:19 11° E 21:31:57 10° ENE visible
20 Jun 3.4 23:08:36 32° SSW 23:11:04 79° ESE 23:16:21 10° NNE visible
21 Jun 5.6 00:49:38 10° W 00:53:26 20° NW 00:57:16 10° N visible
21 Jun 4.0 22:26:56 29° SSE 22:29:06 44° ESE 22:34:04 10° NE visible
22 Jun 4.9 00:06:49 12° WSW 00:10:57 31° NW 00:15:38 10° N visible
22 Jun 4.7 21:45:14 20° SE 21:47:15 25° E 21:51:28 10° NE visible
22 Jun 4.1 23:25:07 20° SW 23:28:38 52° WNW 23:33:46 10° NNE visible
23 Jun 6.1 01:09:57 10° WNW 01:11:39 11° NW 01:13:22 10° NNW visible
23 Jun 5.4 21:03:29 11° ESE 21:05:33 14° E 21:08:10 10° ENE visible
23 Jun 3.5 22:43:22 25° SSW 22:46:27 88° WNW 22:51:45 10° NNE visible
24 Jun 5.8 00:25:30 10° W 00:28:58 18° NW 00:32:28 10° N visible
24 Jun 3.7 22:01:34 25° S 22:04:26 52° ESE 22:09:32 10° NNE visible
24 Jun 5.2 23:42:01 10° WSW 23:46:26 27° NW 23:50:54 10° N visible
25 Jun 4.5 21:19:42 18° SSE 21:22:32 30° E 21:27:03 10° NE visible
25 Jun 4.5 22:59:34 13° SW 23:04:03 44° WNW 23:09:06 10° NNE visible
